TimeAKST,TemperatureF,Dew PointF,Humidity,Sea Level PressureIn,VisibilityMPH,Wind Direction,Wind SpeedMPH,Gust SpeedMPH,PrecipitationIn,Events,Conditions,WindDirDegrees,DateUTC
12:45 AM,42.8,26.6,53,28.93,10.0,West,21.9,46.0,0.00,,Mostly Cloudy,270,2011-11-12 09:45:00
12:53 AM,43.0,26.1,51,28.93,10.0,West,28.8,57.5,0.00,,Mostly Cloudy,270,2011-11-12 09:53:00
1:53 AM,43.0,26.1,51,28.96,10.0,West,31.1,46.0,0.00,Rain,Light Rain,280,2011-11-12 10:53:00
2:19 AM,39.2,30.2,70,28.99,8.0,SW,12.7,34.5,0.00,Rain,Light Rain,230,2011-11-12 11:19:00
2:26 AM,39.2,28.4,65,28.98,10.0,WSW,21.9,38.0,0.00,Rain,Light Rain,250,2011-11-12 11:26:00
2:53 AM,39.9,30.0,68,29.00,9.0,SW,18.4,39.1,0.00,Rain,Light Rain,230,2011-11-12 11:53:00
3:00 AM,39.2,30.2,70,28.99,9.0,WSW,23.0,40.3,0.00,Rain,Light Rain,240,2011-11-12 12:00:00
3:53 AM,39.9,28.9,65,29.03,8.0,West,25.3,47.2,0.00,Rain,Light Rain,260,2011-11-12 12:53:00
4:00 AM,39.2,30.2,70,29.02,6.0,West,24.2,42.6,0.00,Rain,Light Rain,260,2011-11-12 13:00:00
4:53 AM,41.0,28.9,62,29.05,10.0,WSW,20.7,38.0,0.02,Rain,Light Rain,250,2011-11-12 13:53:00
5:34 AM,42.8,26.6,53,29.05,10.0,West,29.9,40.3,0.01,Rain,Light Rain,260,2011-11-12 14:34:00
5:53 AM,43.0,24.1,47,29.06,10.0,West,35.7,52.9,0.01,,Mostly Cloudy,260,2011-11-12 14:53:00
6:53 AM,44.1,21.9,42,29.10,10.0,West,26.5,57.5,N/A,,Scattered Clouds,260,2011-11-12 15:53:00
7:53 AM,42.1,27.0,55,29.12,10.0,SW,24.2,33.4,0.00,Rain,Light Rain,230,2011-11-12 16:53:00
8:53 AM,42.1,26.1,53,29.12,10.0,SW,18.4,28.8,0.00,,Partly Cloudy,230,2011-11-12 17:53:00
9:53 AM,41.0,28.0,60,29.11,10.0,SSW,3.5,-,N/A,,Scattered Clouds,210,2011-11-12 18:53:00
10:36 AM,35.6,30.2,81,29.14,0.5,WNW,20.7,34.5,0.00,Snow,Snow,290,2011-11-12 19:36:00
10:41 AM,33.8,30.2,87,29.14,0.5,West,25.3,36.8,0.03,Snow-Thunderstorm,Thunderstorms and Snow,280,2011-11-12 19:41:00
10:53 AM,34.0,32.0,92,29.15,1.0,WNW,17.3,-,0.07,Snow-Thunderstorm,Light Thunderstorms and Snow,290,2011-11-12 19:53:00
11:02 AM,33.8,32.0,93,29.16,3.0,West,13.8,25.3,0.01,Snow,Light Snow,270,2011-11-12 20:02:00
11:28 AM,35.6,30.2,81,29.16,4.0,West,20.7,38.0,0.03,Snow,Light Snow,270,2011-11-12 20:28:00
11:43 AM,35.6,30.2,81,29.15,6.0,WSW,20.7,34.5,0.03,Snow,Light Snow,240,2011-11-12 20:43:00
11:53 AM,37.9,27.0,65,29.16,9.0,West,12.7,32.2,0.03,Snow,Light Snow,260,2011-11-12 20:53:00
12:53 PM,39.9,24.1,53,29.15,10.0,SW,19.6,28.8,0.01,,Scattered Clouds,230,2011-11-12 21:53:00
1:19 PM,37.4,26.6,65,29.18,4.0,West,20.7,34.5,0.00,Snow,Light Snow,280,2011-11-12 22:19:00
1:24 PM,35.6,26.6,70,29.19,0.8,West,21.9,34.5,0.00,Snow,Light Snow,280,2011-11-12 22:24:00
1:37 PM,35.6,28.4,75,29.17,3.0,SW,10.4,-,0.00,Snow,Light Snow,220,2011-11-12 22:37:00
1:53 PM,37.0,28.9,73,29.18,7.0,WSW,11.5,20.7,0.00,Snow,Light Snow,250,2011-11-12 22:53:00
2:26 PM,39.2,26.6,61,29.19,9.0,SW,15.0,21.9,0.00,,Scattered Clouds,230,2011-11-12 23:26:00
2:53 PM,39.9,26.1,58,29.21,10.0,WSW,21.9,34.5,0.00,,Scattered Clouds,240,2011-11-12 23:53:00
3:53 PM,41.0,21.0,45,29.24,10.0,West,26.5,62.1,N/A,,Scattered Clouds,260,2011-11-13 00:53:00
4:53 PM,39.9,21.0,47,29.29,10.0,West,19.6,27.6,N/A,,Scattered Clouds,270,2011-11-13 01:53:00
5:53 PM,39.0,19.9,46,29.34,10.0,WSW,29.9,38.0,N/A,,Scattered Clouds,250,2011-11-13 02:53:00
6:53 PM,37.9,19.0,47,29.39,9.0,WSW,23.0,51.8,N/A,,Scattered Clouds,250,2011-11-13 03:53:00
7:53 PM,36.0,18.0,48,29.43,10.0,West,25.3,44.9,N/A,,Partly Cloudy,280,2011-11-13 04:53:00
8:53 PM,36.0,16.0,44,29.46,10.0,West,23.0,44.9,N/A,,Partly Cloudy,270,2011-11-13 05:53:00
9:53 PM,35.1,16.0,46,29.50,10.0,West,23.0,40.3,N/A,,Partly Cloudy,260,2011-11-13 06:53:00
10:53 PM,34.0,10.9,38,29.53,10.0,West,27.6,52.9,N/A,,Scattered Clouds,270,2011-11-13 07:53:00
11:53 PM,34.0,12.0,40,29.57,10.0,West,23.0,31.1,N/A,,Scattered Clouds,260,2011-11-13 08:53:00